Flag for U.S.A. Weather past 2 weeks in Hollywood, California, U.S.A.

Now
62 °F

Clear.


Feels Like: 62 °F
Forecast: 59 / 78 °F
Wind: 6 mph from Southeast

Location: Burbank-Glendale-Pasadena Airport

Current Time: May 27, 2015 at 10:16:35 PM

Latest Report: May 27, 2015 at 9:53 PM


Visibility: 10 mi

Pressure: 29.94 "Hg

Humidity: 73%

Dew point: 53 °F

Location of HollywoodLocation

Historic Weather in Hollywood — Graph

°F

Hollywood temperature yesterday

Maximum temperature yesterday: 71 °F (at 2:53 PM)
Minimum temperature yesterday: 57 °F (at 11:53 PM)
Average temperature yesterday: 63 °F

Past Weeks' High & Low Weather Summary

 TemperatureHumidityPressure
High74 °F (May 27, 1:53 PM)89% (May 14, 10:53 PM)30.06 "Hg (May 14, 10:53 PM)
Low52 °F (May 15, 1:53 AM)42% (May 13, 12:53 PM)29.78 "Hg (May 15, 4:53 PM)
Average61 °F65%29.94 "Hg
* Reported May 12 8:53 PM — May 27 8:53 PM, Hollywood, Weather by CustomWeather, © 2015

Note: Actual official high and low records may vary slightly from our data, if they occured in-between our weather recording intervals... More about our weather records

Advertising

Hollywood weather history for previous 24 hours

 ConditionsComfort  
Time TempWeatherWind HumidityBarometerVisibility
8:53 PM
Wed, May 27
61 °FSunny.6 mph72%29.94 "Hg10 mi
7:53 PM63 °FSunny.9 mph70%29.93 "Hg10 mi
6:53 PM67 °FSunny.8 mph61%29.91 "Hg10 mi
5:53 PM69 °FSunny.10 mph57%29.90 "Hg10 mi
4:53 PM72 °FSunny.10 mph52%29.90 "Hg10 mi
3:53 PM73 °FSunny.10 mph50%29.90 "Hg10 mi
2:53 PM73 °FSunny.10 mph50%29.91 "Hg10 mi
1:53 PM74 °FSunny.10 mph48%29.93 "Hg10 mi
12:53 PM70 °FSunny.6 mph55%29.95 "Hg10 mi
11:53 AM67 °FPassing clouds.N/A59%29.96 "Hg8 mi
11:02 AM63 °FOvercast.3 mph68%30.00 "Hg8 mi
10:53 AM62 °FCool.7 mph70%29.97 "HgN/A
9:53 AM61 °FOvercast.5 mph72%29.96 "Hg8 mi
8:53 AM60 °FOvercast.No wind75%29.97 "Hg8 mi
8:04 AM59 °FOvercast.No wind77%29.99 "Hg9 mi
7:53 AM59 °FOvercast.3 mph78%29.97 "Hg9 mi
6:53 AM58 °FOvercast.3 mph81%29.95 "Hg9 mi
5:53 AM58 °FOvercast.5 mph81%29.94 "Hg10 mi
4:53 AM58 °FOvercast.No wind81%29.93 "Hg10 mi
3:53 AM58 °FOvercast.5 mph81%29.95 "Hg10 mi
2:53 AM58 °FOvercast.No wind81%29.96 "Hg10 mi
1:53 AM58 °FOvercast.No wind81%29.96 "Hg10 mi
12:53 AM58 °FOvercast.6 mph81%29.96 "Hg10 mi
11:53 PM
Tue, May 26
57 °FOvercast.5 mph83%29.97 "Hg10 mi
10:53 PM58 °FClear.5 mph81%29.96 "Hg10 mi
Weather by CustomWeather, © 2015

See weather overviewHow to use our weather pages